Location: The Saddle
(36.8333°N, 80.3417°W)
Time: 08:44:16
(UTC-04:00)

A-11 Canister half - Pass Details

Date: 30 May 2024
Orbit: 1515 x 1685 km, 47.2° (Epoch: 17 June)

Event Time Altitude Azimuth Distance (km) Brightness Sun altitude
Exits shadow 02:03:47 22° 257° (WSW) 2,950 10.2 -30.4°
Maximum altitude 02:10:31 66° 334° (NNW) 1,690 9.2 -30.1°
Drops below altitude 10° 02:19:52 10° 57° (ENE) 3,710 11.6 -29.6°
Sets 02:22:56 0° 60° (ENE) 4,680 12.2 -29.4°
